This demonstration page uses our WeatherBlox Daily Observations layout. Learn more.

Left ArrowRight Arrow

44.8408, -93.29828

Hourly Observations for March 7, 2016

Temp ( °F °C ) Dew Point ( °F °C ) Humidity (%) Winds ( mph kmh ) Pressure ( in mb ) Visibility ( mi km ) Precip ( " mm )
12:53 am 00:53 Mostly Clear 43 6.1 37 2.8 80 80 E 7 11 29.63 1004 10 16 0.00 0.00
1:53 am 01:53 Mostly Clear 43 6.1 37 2.8 80 80 ESE 6 9 29.63 1004 10 16 0.00 0.00
2:53 am 02:53 Mostly Cloudy 44 6.7 38 3.3 79 79 ESE 6 9 29.62 1003 10 16 0.00 0.00
3:53 am 03:53 Mostly Cloudy 43 6.1 38 3.3 82 82 ESE 6 9 29.62 1003 10 16 0.00 0.00
4:53 am 04:53 Mostly Cloudy 43 6.1 38 3.3 82 82 ESE 10 17 29.62 1003 10 16 0.00 0.00
5:53 am 05:53 Mostly Cloudy 42 5.6 37 2.8 82 82 ESE 9 15 29.63 1003 10 16 0.00 0.00
6:53 am 06:53 Mostly Sunny 43 6.1 37 2.8 80 80 ESE 12 19 29.65 1004 10 16 0.00 0.00
7:53 am 07:53 Partly Cloudy 46 7.8 39 3.9 77 77 ESE 9 15 29.66 1004 10 16 0.00 0.00
8:53 am 08:53 Mostly Sunny 51 10.6 39 3.9 64 64 SE 8 13 29.66 1004 10 16 0.00 0.00
9:53 am 09:53 Sunny 58 14.4 41 5 53 53 SSE 10 17 29.66 1005 10 16 0.00 0.00
10:53 am 10:53 Mostly Cloudy 61 16.1 42 5.6 50 50 SE 8 13 29.66 1004 10 16 0.00 0.00
11:53 am 11:53 Mostly Cloudy 62 16.7 43 6.1 50 50 ESE 10 17 29.66 1004 10 16 0.00 0.00
12:53 pm 12:53 Cloudy 62 16.7 45 7.2 54 54 ESE 13 20 29.64 1004 10 16 0.00 0.00
1:53 pm 13:53 Mostly Cloudy 62 16.7 46 7.8 56 56 SE 13 20 29.62 1003 10 16 0.00 0.00
2:53 pm 14:53 Cloudy 63 17.2 47 8.3 56 56 ESE 13 20 29.62 1003 10 16 0.00 0.00
3:53 pm 15:53 Cloudy 63 17.2 48 8.9 58 58 SE 17 28 29.62 1003 10 16 0.00 0.00
4:53 pm 16:53 Cloudy 61 16.1 49 9.4 65 65 SSE 10 17 29.63 1003 10 16 0.00 0.00
5:53 pm 17:53 Cloudy 60 15.6 48 8.9 65 65 SE 10 17 29.62 1003 10 16 0.00 0.00
6:53 pm 18:53 Cloudy 58 14.4 47 8.3 67 67 SE 9 15 29.63 1004 10 16 0.00 0.00
7:53 pm 19:53 Cloudy 58 14.4 47 8.3 67 67 SE 12 19 29.63 1003 10 16 0.00 0.00
8:53 pm 20:53 Cloudy 57 13.9 47 8.3 69 69 SE 15 24 29.64 1004 10 16 0.00 0.00
9:53 pm 21:53 Cloudy 57 13.9 47 8.3 69 69 SE 15 24 29.64 1004 10 16 0.00 0.00
10:53 pm 22:53 Cloudy 57 13.9 48 8.9 72 72 SE 15 24 29.62 1003 10 16 0.00 0.00
11:53 pm 23:53 Mostly Cloudy 57 13.9 49 9.4 74 74 SSE 7 11 29.61 1003 10 16 0.00 0.00

Powered by AerisWeather